Regional Weather Roundup
Issued by NWS

Home | Current Version | Previous Version | Text Only | Print | Product List | Glossary Off
Versions: 1 2 3 4 5 6 7 8 9 10 11 12 13 14 15 16 17 18 19 20 21 22 23 24 25 26 27 28 29 30 31 32 33 34 35 36 37 38 39 40 41 42 43 44 45 46 47 48 49 50

000
ASUS43 KMKX 010100
RWRWI

WISCONSIN REGIONAL WEATHER ROUNDUP
NATIONAL WEATHER SERVICE MILWAUKEE/SULLIVAN WI
800 PM CDT FRI JUL 31 2015

NOTE: "FAIR" INDICATES FEW OR NO CLOUDS BELOW 12,000 FEET WITH NO
SIGNIFICANT WEATHER AND/OR OBSTRUCTIONS TO VISIBILITY.

WIZ001-002-006>008-014>016-023>028-010200-
NORTHWEST WISCONSIN

CITY           SKY/WX    TMP DP  RH WIND       PRES   REMARKS
SUPERIOR ARPT  CLEAR     74  51  43 W8        29.91S
ASHLAND        MOCLDY    68  60  75 NW5       29.91F
HAYWARD        CLEAR     75  49  39 MISG      29.94S
SIREN          CLEAR     75  50  41 W6        29.95F
CUMBERLAND     CLEAR     72  50  46 W8        29.96F
RICE LAKE      CLEAR     73  51  45 W7        29.97F
CHETEK         CLEAR     74  51  44 W7        29.95F
LADYSMITH      CLEAR     74  53  47 W8        29.96F
EAU CLAIRE     NOT AVBL
MENOMONIE        N/A     77  49  37 W7        29.97S HAZE
NEW RICHMOND   CLEAR     73  51  45 W5        29.98S
OSCEOLA        CLEAR     74  52  44 W5        29.99S
$$

WIZ003>005-009-010-017-018-010200-
NORTH CENTRAL WISCONSIN

CITY           SKY/WX    TMP DP  RH WIND       PRES   REMARKS
MANITOWISH WTR PTCLDY    64  58  80 SW3       29.93F
ARBOR VITAE    PTCLDY    64  58  78 SW3       29.93F
WOODRUFF       PTCLDY    64  58  78 SW3       29.93F
RHINELANDER    PTCLDY    63  57  81 W5        29.95F
EAGLE RIVER    PTCLDY    64  51  62 W7        29.93F
LAND O LAKES   CLEAR     66  50  55 W5        29.93F
PHILLIPS       MOCLDY    66  60  83 CALM      29.94F
TOMAHAWK       RAIN      60  56  86 CALM      29.97S
MEDFORD        PTCLDY    71  53  54 W8        29.95S
MERRILL        NOT AVBL
$$

WIZ029-030-035-036-043>047-010200-
CENTRAL WISCONSIN

CITY           SKY/WX    TMP DP  RH WIND       PRES   REMARKS
WAUSAU         CLOUDY    67  55  65 VRB7      29.94R
MOSINEE        NOT AVBL
MARSHFIELD     CLEAR     72  50  45 W7        29.95S
STEVENS POINT  CLEAR     73  51  46 W6        29.95S
WAUPACA        MOCLDY    78  50  36 W7        29.93R
WAUTOMA        NOT AVBL
WISC RAPIDS    CLEAR     74  50  42 NW7       29.96S
CAMP DOUGLAS   NOT AVBL
$$

WIZ011>013-019>022-031-037>040-048>050-010200-
NORTHEAST WISCONSIN

CITY           SKY/WX    TMP DP  RH WIND       PRES   REMARKS
ANTIGO         PTCLDY    63  54  72 NW6       29.95S
SHAWANO        MOCLDY    71  53  51 W7        29.92S
OCONTO         CLOUDY    75  51  42 NW5       29.87R
STURGEON BAY   MOCLDY    72  55  56 N7        29.90R
GREEN BAY      CLOUDY    73  52  47 NW15      29.91R
MANITOWOC      NOT AVBL
APPLETON       MOCLDY    73  50  43 W7        29.92R
CLINTONVILLE   LGT RAIN  68  55  64 N13G21    29.93R
OSHKOSH        CLEAR     75  52  44 NW10      29.92R
$$

WIZ032>034-041-042-053>061-010200-
SOUTHWEST WISCONSIN

CITY           SKY/WX    TMP DP  RH WIND       PRES   REMARKS
LA CROSSE      CLEAR     77  55  46 W5        29.97R
SPARTA         CLEAR     76  46  34 W5        29.98R
VIROQUA        CLEAR     73  54  51 NW3       30.00S
BOSCOBEL       CLEAR     77  55  46 CALM      29.98R
PRAIRIE DU CHI CLEAR     79  50  36 W7        29.98S
PLATTEVILLE    CLEAR     76  51  42 NW7       30.00R
$$

WIZ056-057-062-063-064-067-068-010200-
SOUTH CENTRAL WISCONSIN

CITY           SKY/WX    TMP DP  RH WIND       PRES   REMARKS
REEDSBURG      CLEAR     76  50  39 W7        29.97R
BARABOO/DELLS  CLEAR     76  45  33 W6        29.97R
LONE ROCK      NOT AVBL
MINERAL POINT  CLEAR     75  50  41 W3        30.00R
MADISON        PTCLDY    76  49  38 W5        29.96R
MIDDLETON      CLEAR     76  47  35 W8        29.98R
WATERTOWN      CLEAR     75  54  47 W6        29.94S
MONROE         CLEAR     75  52  43 W6        29.98R
JANESVILLE     CLEAR     75  48  38 NW12      29.96R
$$

WIZ051-052-058>065-066-070>072-010200-
SOUTHEAST WISCONSIN

CITY           SKY/WX    TMP DP  RH WIND       PRES   REMARKS
MILWAUKEE      PTCLDY    80  47  31 NW14      29.92S
WAUKESHA       PTCLDY    73  50  43 W8        29.95R
MILWAUKEE/TIMM CLEAR     75  45  33 W8        29.93R
RACINE         CLEAR     77  50  38 W6        29.94S
BURLINGTON     CLEAR     74  49  41 NW7       29.95R
KENOSHA        CLEAR     73  52  47 W7        29.94R
FOND DU LAC    CLEAR     74  54  49 NW8       29.93R
SHEBOYGAN      CLEAR     75  53  46 W7        29.90S
WEST BEND      CLEAR     77  45  31 CALM      29.92S
JUNEAU         CLEAR     75  52  44 W6        29.95R
$$

LSZ147-162-010200-
LAKE SUPERIOR

STATION/POSITION TIME  TEMP    WIND        PRES    WAVE
                       AIR SEA DIR/SP/G            HT/PER
                 (UTC) (F)     (DEG/KT/KT) (MB)    (FT/S)
W MID LAKE BUOY  2350   60 54  240/ 14/ 17 1010.9F   1/ 4
DEVILS ISLAND    0000   66     260/ 10/ 11 1012.2R
PORT WING        0000   72     180/  4/  5 1012.5
SAXON HARBOR     0040   68                 1011.9F
$$

LMZ867-665-643>646-010200-
LAKE MICHIGAN

STATION/POSITION TIME  TEMP    WIND        PRES    WAVE
                       AIR SEA DIR/SP/G            HT/PER
                 (UTC) (F)     (DEG/KT/KT) (MB)    (FT/S)
CHAMBERS ISLAND  0000   75     290/  1/  7 1011.2R
S GREEN BAY BUOY 0000   72 72  310/ 10/ 14 1012.7R
N MID LAKE BUOY  2350   69 69  150/  2/  4 1010.2S   1/ 3
NORTHPORT PIER   0000   74     300/  7/ 15 1010.8S
SISTER BAY       0044   74     330/ 13/ 15   N/A
ALGOMA LAKESHORE 0012             CALM       N/A
KEWAUNEE LAKESHO 0000   78     300/  6/ 10 1011.0R
SHEBOYGAN LAKESH 0000   79     290/ 12/ 15 1012.2S
PORT WASHINGTON  0040   80     280/  6/  9 1013.2R
ATWATER BUOY     0000   75 68  290/ 12/ 14 1014.2R
MILWAUKEE LAKESH 0000   80     300/ 12/ 17   N/A
KENOSHA   LAKESH 0000   81     290/ 10/ 17 1012.5S
$$

TC  - TEMPERATURE IN CELSIUS
VSB - VISIBILITY IN STATUTE MILES
WCI - WIND CHILL INDEX
HX  - HEAT INDEX



USA.gov is the U.S. government's official web portal to all federal, state and local government web resources and services.